• En España
  • Lista de países
  • Para 7 días
  • Temperatura del agua
  • Mapa Satelital
  • El tiempo en el mapa
  • Informadores
  • user-avatar
    Iniciar sesión

    Tiempo cada hora Vvedenka

    Hoy, 21 Octubre, Domingo

    Tiempo Temperatura Precipitaciones Viento Presión Humedad
    00:00 +6°C° 0 mm 2 mps 745 mmHg 78%
    01:00 +5°C° 0 mm 2 mps 746 mmHg 79%
    02:00 +5°C° 0 mm 2 mps 746 mmHg 81%
    03:00 +5°C° 0 mm 2 mps 746 mmHg 82%
    04:00 +4°C° 0 mm 2 mps 746 mmHg 83%
    05:00 +4°C° 0 mm 2 mps 746 mmHg 85%
    06:00 +4°C° 0 mm 2 mps 746 mmHg 86%
    07:00 +3°C° 0 mm 3 mps 746 mmHg 84%
    08:00 +4°C° 0 mm 3 mps 747 mmHg 83%
    09:00 +4°C° 0 mm 3 mps 747 mmHg 81%
    10:00 +5°C° 0 mm 3 mps 747 mmHg 76%
    11:00 +7°C° 0 mm 3 mps 747 mmHg 71%
    12:00 +9°C° 0 mm 3 mps 748 mmHg 66%
    13:00 +9°C° 0 mm 3 mps 748 mmHg 64%
    14:00 +9°C° 0 mm 3 mps 748 mmHg 63%
    15:00 +10°C° 0 mm 3 mps 748 mmHg 61%
    16:00 +9°C° 0 mm 3 mps 748 mmHg 65%
    17:00 +8°C° 0 mm 3 mps 748 mmHg 70%
    18:00 +7°C° 0 mm 2 mps 748 mmHg 74%
    19:00 +6°C° 0 mm 2 mps 748 mmHg 75%
    20:00 +6°C° 0 mm 2 mps 748 mmHg 77%
    21:00 +5°C° 0 mm 2 mps 749 mmHg 79%
    22:00 +5°C° 0 mm 2 mps 749 mmHg 80%
    23:00 +5°C° 0 mm 2 mps 749 mmHg 81%

    Mañana, 22 Octubre, Lunes

    Tiempo Temperatura Precipitaciones Viento Presión Humedad
    00:00 +4°C° 0 mm 2 mps 749 mmHg 82%
    01:00 +4°C° 0 mm 2 mps 749 mmHg 83%
    02:00 +4°C° 0 mm 2 mps 749 mmHg 84%
    03:00 +4°C° 0 mm 2 mps 749 mmHg 85%
    04:00 +3°C° 0 mm 2 mps 749 mmHg 86%
    05:00 +3°C° 0 mm 2 mps 748 mmHg 87%
    06:00 +3°C° 0 mm 2 mps 748 mmHg 88%
    07:00 +3°C° 0 mm 2 mps 748 mmHg 86%
    08:00 +4°C° 0 mm 2 mps 749 mmHg 83%
    09:00 +5°C° 0 mm 2 mps 749 mmHg 81%
    10:00 +6°C° 0 mm 2 mps 748 mmHg 75%
    11:00 +8°C° 0 mm 1 mps 748 mmHg 69%
    12:00 +10°C° 0 mm 1 mps 748 mmHg 63%
    13:00 +10°C° 0 mm 1 mps 747 mmHg 62%
    14:00 +11°C° 0 mm 1 mps 747 mmHg 61%
    15:00 +12°C° 0 mm 1 mps 746 mmHg 60%
    16:00 +11°C° 0 mm 1 mps 746 mmHg 65%
    17:00 +10°C° 0 mm 1 mps 745 mmHg 70%
    18:00 +9°C° 0 mm 1 mps 745 mmHg 75%
    19:00 +8°C° 0 mm 1 mps 745 mmHg 78%
    20:00 +8°C° 0 mm 1 mps 744 mmHg 80%
    21:00 +8°C° 0 mm 1 mps 744 mmHg 83%
    22:00 +8°C° 0.1 mm 1 mps 744 mmHg 85%
    23:00 +8°C° 0.1 mm 1 mps 743 mmHg 87%

    Pasado mañana, 23 Octubre, Martes

    Tiempo Temperatura Precipitaciones Viento Presión Humedad
    00:00 +8°C° 0.1 mm 1 mps 743 mmHg 89%
    01:00 +8°C° 0.2 mm 1 mps 742 mmHg 89%
    02:00 +8°C° 0.2 mm 1 mps 741 mmHg 89%
    03:00 +8°C° 0.2 mm 1 mps 741 mmHg 90%
    04:00 +8°C° 0.4 mm 1 mps 740 mmHg 89%
    05:00 +8°C° 0.4 mm 1 mps 739 mmHg 89%
    06:00 +7°C° 0.4 mm 2 mps 738 mmHg 89%
    07:00 +7°C° 0.6 mm 2 mps 738 mmHg 87%
    08:00 +6°C° 0.6 mm 2 mps 738 mmHg 85%
    09:00 +5°C° 0.6 mm 3 mps 737 mmHg 83%
    10:00 +7°C° 0.4 mm 3 mps 737 mmHg 78%
    11:00 +7°C° 0.4 mm 3 mps 736 mmHg 73%
    12:00 +8°C° 0.4 mm 3 mps 736 mmHg 69%
    13:00 +7°C° 0 mm 4 mps 736 mmHg 68%
    14:00 +7°C° 0 mm 4 mps 735 mmHg 67%
    15:00 +8°C° 0 mm 5 mps 735 mmHg 67%
    16:00 +7°C° 0 mm 4 mps 734 mmHg 70%
    17:00 +7°C° 0 mm 4 mps 734 mmHg 74%
    18:00 +7°C° 0 mm 3 mps 734 mmHg 78%
    19:00 +7°C° 0 mm 3 mps 733 mmHg 80%
    20:00 +6°C° 0 mm 4 mps 733 mmHg 81%
    21:00 +5°C° 0 mm 4 mps 732 mmHg 82%
    22:00 +5°C° 0.1 mm 4 mps 732 mmHg 83%
    23:00 +5°C° 0.1 mm 4 mps 731 mmHg 84%

    24 Octubre, Miércoles

    Tiempo Temperatura Precipitaciones Viento Presión Humedad
    00:00 +5°C° 0.1 mm 4 mps 731 mmHg 85%
    01:00 +5°C° 0.1 mm 4 mps 730 mmHg 85%
    02:00 +5°C° 0.1 mm 4 mps 730 mmHg 86%
    03:00 +5°C° 0.1 mm 4 mps 729 mmHg 86%
    04:00 +5°C° 0.1 mm 4 mps 729 mmHg 85%
    05:00 +5°C° 0.1 mm 4 mps 728 mmHg 83%
    06:00 +4°C° 0.1 mm 4 mps 727 mmHg 82%
    07:00 +5°C° 0.1 mm 4 mps 727 mmHg 80%
    08:00 +5°C° 0.1 mm 5 mps 727 mmHg 79%
    09:00 +5°C° 0.1 mm 5 mps 726 mmHg 78%
    10:00 +4°C° 0.1 mm 6 mps 726 mmHg 74%
    11:00 +5°C° 0.1 mm 6 mps 725 mmHg 71%
    12:00 +5°C° 0.1 mm 7 mps 725 mmHg 68%
    13:00 +5°C° 0.5 mm 7 mps 724 mmHg 71%
    14:00 +5°C° 0.5 mm 7 mps 724 mmHg 75%
    15:00 +5°C° 0.5 mm 7 mps 723 mmHg 79%
    16:00 +5°C° 0.5 mm 7 mps 722 mmHg 81%
    17:00 +5°C° 0.5 mm 7 mps 722 mmHg 83%
    18:00 +5°C° 0.5 mm 7 mps 721 mmHg 85%
    19:00 +5°C° 0.3 mm 6 mps 721 mmHg 85%
    20:00 +5°C° 0.3 mm 6 mps 721 mmHg 86%
    21:00 +6°C° 0.3 mm 5 mps 721 mmHg 86%
    22:00 +5°C° 0 mm 6 mps 721 mmHg 86%
    23:00 +4°C° 0 mm 6 mps 721 mmHg 86%

    25 Octubre, Jueves

    Tiempo Temperatura Precipitaciones Viento Presión Humedad
    00:00 +4°C° 0 mm 6 mps 721 mmHg 86%
    01:00 +3°C° 0 mm 6 mps 721 mmHg 84%
    02:00 +3°C° 0 mm 5 mps 721 mmHg 83%
    03:00 +2°C° 0 mm 5 mps 721 mmHg 82%
    04:00 +2°C° 0 mm 5 mps 722 mmHg 82%
    05:00 +1°C° 0 mm 5 mps 722 mmHg 83%
    06:00 +1°C° 0 mm 5 mps 722 mmHg 83%
    07:00 +1°C° 0 mm 5 mps 722 mmHg 81%
    08:00 +1°C° 0 mm 6 mps 722 mmHg 80%
    09:00 +1°C° 0 mm 6 mps 722 mmHg 78%
    10:00 +2°C° 0 mm 6 mps 722 mmHg 74%
    11:00 +3°C° 0 mm 6 mps 722 mmHg 70%
    12:00 +4°C° 0 mm 6 mps 722 mmHg 66%
    13:00 +4°C° 0 mm 6 mps 722 mmHg 65%
    14:00 +4°C° 0 mm 6 mps 722 mmHg 65%
    15:00 +4°C° 0 mm 6 mps 723 mmHg 65%
    16:00 +4°C° 0 mm 6 mps 723 mmHg 67%
    17:00 +3°C° 0 mm 6 mps 723 mmHg 69%
    18:00 +3°C° 0 mm 5 mps 723 mmHg 71%
    19:00 +3°C° 0 mm 5 mps 724 mmHg 73%
    20:00 +3°C° 0 mm 5 mps 724 mmHg 76%
    21:00 +3°C° 0 mm 5 mps 724 mmHg 79%
    22:00 +3°C° 0 mm 5 mps 724 mmHg 81%
    23:00 +3°C° 0 mm 5 mps 725 mmHg 84%

    26 Octubre, Viernes

    Tiempo Temperatura Precipitaciones Viento Presión Humedad
    00:00 +4°C° 0 mm 4 mps 725 mmHg 86%
    01:00 +3°C° 0 mm 4 mps 726 mmHg 87%
    02:00 +3°C° 0 mm 4 mps 726 mmHg 87%
    03:00 +3°C° 0 mm 3 mps 727 mmHg 88%
    04:00 +3°C° 0 mm 3 mps 727 mmHg 88%
    05:00 +2°C° 0 mm 3 mps 728 mmHg 88%
    06:00 +2°C° 0 mm 3 mps 728 mmHg 89%
    07:00 +2°C° 0 mm 3 mps 729 mmHg 88%
    08:00 +1°C° 0 mm 3 mps 729 mmHg 87%
    09:00 0°C° 0 mm 4 mps 730 mmHg 86%
    10:00 +1°C° 0 mm 4 mps 730 mmHg 80%
    11:00 +3°C° 0 mm 4 mps 731 mmHg 75%
    12:00 +4°C° 0 mm 4 mps 731 mmHg 70%
    13:00 +4°C° 0 mm 4 mps 731 mmHg 68%
    14:00 +5°C° 0 mm 4 mps 731 mmHg 65%
    15:00 +5°C° 0 mm 4 mps 731 mmHg 63%
    16:00 +4°C° 0.1 mm 4 mps 732 mmHg 67%
    17:00 +4°C° 0.1 mm 4 mps 732 mmHg 71%
    18:00 +3°C° 0.1 mm 4 mps 732 mmHg 75%
    19:00 +3°C° 0 mm 4 mps 733 mmHg 77%
    20:00 +1°C° 0 mm 4 mps 733 mmHg 79%
    21:00 +1°C° 0 mm 4 mps 733 mmHg 80%
    22:00 +1°C° 0 mm 4 mps 733 mmHg 82%
    23:00 +1°C° 0 mm 5 mps 733 mmHg 84%
    Mostrar más